{"data":{"norad_id":56556,"epoch":"2026-05-25T01:27:32.961024Z","epoch_age_seconds":62952,"freshness":"FRESH","line1":"1 56556U 23065BF  26145.06079816  .00000300  00000+0  20441-4 0  9995","line2":"2 56556  43.0025 152.1458 0001316 310.9059  49.1679 15.27576164168158","mean_motion":15.27576164,"eccentricity":0.0001316,"inclination_deg":43.0025,"raan_deg":152.1458,"arg_perigee_deg":310.9059,"mean_anomaly_deg":49.1679,"bstar":2.0441e-5,"rev_number":16815,"period_min":94.266985433271,"perigee_km":482.15764882584,"apogee_km":483.96351602953,"semimajor_km":6861.1975824277,"source":"CELESTRAK","updated_at":"2026-05-25T13:38:18.117991Z"}}